User: anonymous   Login
Location: Bowman Observatory
(41.0326°N, 73.6210°W)
Time: 18:08:11
(UTC-05:00)
Language:

Cosmos 2297 - Orbit

View from above orbital plane
View from above orbital plane
View from above satellite
View from above satellite

Ground track
Ground track

The orbit data is extracted from the following two-line orbital elements,

1 23404U 94077A   14329.50403493 -.00000131  00000-0 -44544-4 0  9225
2 23404 071.0159 089.5041 0012853 134.3914 297.7307 14.13418268 31994
Epoch (UTC): 25 November 2014 12:05:48
Eccentricity: 0.0012853
inclination: 71.0159°
perigee height: 838 km
apogee height: 857 km
right ascension of ascending node: 89.5041°
argument of perigee: 134.3914°
revolutions per day: 14.13418268
mean anomaly at epoch: 297.7307°
orbit number at epoch: 3199

The dashed part of the orbit path shows where the satellite is in the earth's shadow,  

DLR